Satellite: CAPE1
Catalog number: 31130
Epoch time: 10147.80937699
Element set: 895
Inclination: 097.9401 deg
RA of node: 188.3212 deg
Eccentricity: 0.0100838
Arg of perigee: 297.6095 deg
Mean anomaly: 061.4863 deg
Mean motion: 14.52179707 rev/day
Decay rate: 1.84e-06 rev/day^2
Epoch rev: 16470
Checksum: 319
Satellite: COMPASS
Catalog number: 32787
Epoch time: 10145.75104764
Element set: 0682
Inclination: 097.8949 deg
RA of node: 210.8144 deg
Eccentricity: 0.0015948
Arg of perigee: 003.1517 deg
Mean anomaly: 356.9788 deg
Mean motion: 14.81870611 rev/day
Decay rate: 5.47e-06 rev/day^2
Epoch rev: 11217
Checksum: 318
Satellite: AAUSAT2
Catalog number: 32788
Epoch time: 10146.63398479
Element set: 0675
Inclination: 097.8951 deg
RA of node: 211.8087 deg
Eccentricity: 0.0015822
Arg of perigee: 001.8159 deg
Mean anomaly: 358.3081 deg
Mean motion: 14.82013019 rev/day
Decay rate: 3.00e-06 rev/day^2
Epoch rev: 11231
Checksum: 294
Satellite: DO-64
Catalog number: 32789
Epoch time: 10146.64492487
Element set: 0692
Inclination: 097.9022 deg
RA of node: 212.2683 deg
Eccentricity: 0.0015502
Arg of perigee: 359.8275 deg
Mean anomaly: 000.2932 deg
Mean motion: 14.82145596 rev/day
Decay rate: 4.66e-06 rev/day^2
Epoch rev: 11231
Checksum: 312
Satellite: CO-66
Catalog number: 32791
Epoch time: 10145.83725291
Element set: 0675
Inclination: 097.8971 deg
RA of node: 210.9182 deg
Eccentricity: 0.0016286
Arg of perigee: 001.3429 deg
Mean anomaly: 358.7750 deg
Mean motion: 14.81655911 rev/day
Decay rate: 1.23e-06 rev/day^2
Epoch rev: 11214
Checksum: 307
Satellite: RS-30
Catalog number: 32953
Epoch time: 10147.68501147
Element set: 729
Inclination: 082.5025 deg
RA of node: 042.4278 deg
Eccentricity: 0.0019071
Arg of perigee: 143.3381 deg
Mean anomaly: 216.9010 deg
Mean motion: 12.43005202 rev/day
Decay rate: 1.0e-07 rev/day^2
Epoch rev: 9119
Checksum: 248
Satellite: TACSAT-3
Catalog number: 35001
Epoch time: 10147.90119949
Element set: 296
Inclination: 040.4570 deg
RA of node: 335.9521 deg
Eccentricity: 0.0021267
Arg of perigee: 217.5423 deg
Mean anomaly: 142.3907 deg
Mean motion: 15.41635801 rev/day
Decay rate: 3.432e-05 rev/day^2
Epoch rev: 5750
Checksum: 272
Satellite: PHARMSAT
Catalog number: 35002
Epoch time: 10147.86196137
Element set: 280
Inclination: 040.4713 deg
RA of node: 334.2585 deg
Eccentricity: 0.0024581
Arg of perigee: 220.5040 deg
Mean anomaly: 139.3958 deg
Mean motion: 15.42177979 rev/day
Decay rate: 2.706e-05 rev/day^2
Epoch rev: 5751
Checksum: 287
Satellite: HAWKSAT1
Catalog number: 35003
Epoch time: 10147.87546959
Element set: 299
Inclination: 040.4635 deg
RA of node: 329.5607 deg
Eccentricity: 0.0022602
Arg of perigee: 234.7052 deg
Mean anomaly: 125.1647 deg
Mean motion: 15.45105748 rev/day
Decay rate: 6.321e-05 rev/day^2
Epoch rev: 5757
Checksum: 297
Satellite: CP6
Catalog number: 35004
Epoch time: 10146.91397609
Element set: 0303
Inclination: 040.4656 deg
RA of node: 334.5927 deg
Eccentricity: 0.0021408
Arg of perigee: 230.0729 deg
Mean anomaly: 129.8204 deg
Mean motion: 15.45857168 rev/day
Decay rate: 7.291e-05 rev/day^2
Epoch rev: 05742
Checksum: 297
Satellite: AEROCUB3
Catalog number: 35005
Epoch time: 10146.90539926
Element set: 0340
Inclination: 040.4752 deg
RA of node: 333.0910 deg
Eccentricity: 0.0018867
Arg of perigee: 241.8789 deg
Mean anomaly: 118.0123 deg
Mean motion: 15.50220603 rev/day
Decay rate: 2.1522e-04 rev/day^2
Epoch rev: 05744
Checksum: 267
Satellite: DRAGNSAT
Catalog number: 35690
Epoch time: 10076.22711312
Element set: 316
Inclination: 051.6170 deg
RA of node: 315.4586 deg
Eccentricity: 0.0004999
Arg of perigee: 310.9891 deg
Mean anomaly: 057.3269 deg
Mean motion: 16.42150010 rev/day
Decay rate: 5.715194e-02 rev/day^2
Epoch rev: 3656
Checksum: 289
Satellite: POLLUX
Catalog number: 35693
Epoch time: 10087.99866888
Element set: 352
Inclination: 051.6099 deg
RA of node: 254.5746 deg
Eccentricity: 0.0006270
Arg of perigee: 294.4866 deg
Mean anomaly: 097.5899 deg
Mean motion: 16.52338462 rev/day
Decay rate: 2.3496735e-01 rev/day^2
Epoch rev: 3839
Checksum: 384
Satellite: CASTOR
Catalog number: 35694
Epoch time: 10147.85887669
Element set: 412
Inclination: 051.6371 deg
RA of node: 308.7625 deg
Eccentricity: 0.0001524
Arg of perigee: 147.0596 deg
Mean anomaly: 213.0510 deg
Mean motion: 15.99367372 rev/day
Decay rate: 6.4519e-04 rev/day^2
Epoch rev: 4780
Checksum: 317
Satellite: METEOR-M
Catalog number: 35865
Epoch time: 10147.86724268
Element set: 330
Inclination: 098.7595 deg
RA of node: 201.8094 deg
Eccentricity: 0.0003437
Arg of perigee: 066.6524 deg
Mean anomaly: 293.4996 deg
Mean motion: 14.21830301 rev/day
Decay rate: 1.76e-06 rev/day^2
Epoch rev: 3583
Checksum: 310
